Radiation Dose at Monitoring Post of Fukushima Daini Nuclear Power Station
Date,Time,MP-1(microSv/h),MP-2(microSv/h),MP-3(microSv/h),MP-4(microSv/h),MP-5(microSv/h),MP-6(microSv/h),MP-7(microSv/h),Wind Direction,Wind Velocity(m/s),Rain
2018/02/14,00:00,0.342,0.207,0.341,0.324,0.306,0.171,0.102,southwest,3.0,No
2018/02/14,00:10,0.341,0.208,0.342,0.324,0.305,0.169,0.102,southwest,2.2,No
2018/02/14,00:20,0.342,0.207,0.342,0.323,0.305,0.170,0.102,southwest,1.4,No
2018/02/14,00:30,0.341,0.207,0.342,0.324,0.304,0.170,0.103,south,0.9,No
2018/02/14,00:40,0.341,0.208,0.341,0.323,0.306,0.170,0.102,southeast,1.1,No
2018/02/14,00:50,0.341,0.208,0.341,0.323,0.305,0.170,0.101,southwest,1.0,No
2018/02/14,01:00,0.341,0.206,0.342,0.323,0.305,0.169,0.102,south-southwest,0.6,No
2018/02/14,01:10,0.341,0.208,0.341,0.322,0.304,0.170,0.102,-,CALM,No
2018/02/14,01:20,0.341,0.207,0.343,0.323,0.304,0.170,0.102,southwest,1.8,No
2018/02/14,01:30,0.341,0.207,0.341,0.324,0.305,0.171,0.103,south-southwest,2.3,No
2018/02/14,01:40,0.341,0.208,0.341,0.325,0.305,0.170,0.102,southwest,2.7,No
2018/02/14,01:50,0.341,0.208,0.341,0.323,0.305,0.170,0.102,southwest,2.8,No
2018/02/14,02:00,0.342,0.207,0.340,0.323,0.305,0.170,0.102,southwest,1.9,No
2018/02/14,02:10,0.342,0.207,0.342,0.323,0.305,0.170,0.103,southwest,1.5,No
2018/02/14,02:20,0.340,0.207,0.341,0.322,0.306,0.171,0.102,southwest,1.3,No
2018/02/14,02:30,0.340,0.207,0.342,0.323,0.305,0.170,0.102,south-southwest,2.5,No
2018/02/14,02:40,0.340,0.206,0.343,0.323,0.304,0.170,0.102,south-southeast,3.1,No
2018/02/14,02:50,0.343,0.208,0.341,0.324,0.305,0.170,0.102,south-southwest,3.0,No
2018/02/14,03:00,0.340,0.208,0.341,0.324,0.305,0.170,0.103,south,3.1,No
2018/02/14,03:10,0.340,0.207,0.342,0.324,0.306,0.171,0.103,south-southwest,5.5,No
2018/02/14,03:20,0.340,0.206,0.342,0.324,0.306,0.170,0.103,south-southwest,5.8,No
2018/02/14,03:30,0.339,0.206,0.341,0.322,0.305,0.170,0.103,south-southwest,5.3,No
2018/02/14,03:40,0.340,0.206,0.342,0.324,0.305,0.169,0.102,south-southwest,5.6,No
2018/02/14,03:50,0.340,0.207,0.341,0.324,0.305,0.170,0.102,south,5.3,No
2018/02/14,04:00,0.340,0.207,0.342,0.323,0.304,0.171,0.103,south,4.6,No
2018/02/14,04:10,0.341,0.208,0.341,0.323,0.305,0.170,0.102,south,3.5,No
2018/02/14,04:20,0.341,0.206,0.341,0.324,0.305,0.171,0.102,south-southwest,3.6,No
2018/02/14,04:30,0.340,0.208,0.342,0.322,0.306,0.170,0.102,south,5.0,No
2018/02/14,04:40,0.340,0.208,0.341,0.323,0.304,0.171,0.103,south-southwest,5.9,No
2018/02/14,04:50,0.340,0.207,0.342,0.324,0.305,0.169,0.102,south,6.8,No
2018/02/14,05:00,0.341,0.205,0.341,0.323,0.306,0.170,0.103,south-southwest,4.1,No
2018/02/14,05:10,0.340,0.207,0.341,0.322,0.306,0.170,0.102,south-southwest,5.8,No
2018/02/14,05:20,0.340,0.207,0.341,0.324,0.303,0.171,0.102,south-southwest,6.7,No
2018/02/14,05:30,0.340,0.207,0.341,0.323,0.304,0.170,0.102,south,3.3,No
2018/02/14,05:40,0.340,0.207,0.340,0.322,0.303,0.171,0.102,south,1.9,No
2018/02/14,05:50,0.340,0.207,0.342,0.324,0.304,0.170,0.102,south,5.0,No
2018/02/14,06:00,0.340,0.207,0.341,0.322,0.304,0.169,0.102,south-southwest,4.2,No
2018/02/14,06:10,0.340,0.208,0.341,0.323,0.305,0.169,0.102,south,3.7,No
2018/02/14,06:20,0.340,0.207,0.341,0.324,0.305,0.170,0.102,south,5.0,No
2018/02/14,06:30,0.341,0.207,0.340,0.322,0.304,0.169,0.101,south-southwest,5.6,No
2018/02/14,06:40,0.340,0.207,0.342,0.322,0.306,0.169,0.102,south-southwest,4.3,No
2018/02/14,06:50,0.340,0.207,0.340,0.324,0.305,0.170,0.102,south-southwest,2.9,No
2018/02/14,07:00,0.340,0.207,0.339,0.324,0.305,0.169,0.102,south-southwest,4.1,No
2018/02/14,07:10,0.340,0.207,0.340,0.323,0.305,0.169,0.102,south-southwest,2.7,No
2018/02/14,07:20,0.340,0.207,0.341,0.323,0.305,0.170,0.102,south-southwest,4.1,No
2018/02/14,07:30,0.340,0.207,0.340,0.323,0.306,0.170,0.102,south-southwest,4.1,No
2018/02/14,07:40,0.341,0.206,0.341,0.323,0.305,0.171,0.101,south-southwest,5.7,No
2018/02/14,07:50,0.342,0.207,0.340,0.322,0.303,0.170,0.102,southwest,3.1,No
2018/02/14,08:00,0.341,0.208,0.342,0.323,0.304,0.170,0.101,southwest,2.1,No
2018/02/14,08:10,0.340,0.207,0.341,0.322,0.304,0.170,0.101,south-southwest,1.4,No
2018/02/14,08:20,0.339,0.207,0.342,0.323,0.305,0.170,0.102,south,2.3,No
2018/02/14,08:30,0.339,0.207,0.340,0.323,0.306,0.169,0.101,south-southwest,2.7,No
2018/02/14,08:40,0.341,0.208,0.341,0.322,0.304,0.169,0.102,south-southwest,2.7,No
2018/02/14,08:50,0.339,0.207,0.339,0.322,0.306,0.169,0.101,south-southwest,2.1,No
2018/02/14,09:00,0.339,0.207,0.340,0.320,0.306,0.170,0.102,south-southwest,3.9,No
2018/02/14,09:10,0.338,0.206,0.340,0.322,0.304,0.170,0.102,south-southwest,3.3,No
2018/02/14,09:20,0.340,0.207,0.341,0.322,0.304,0.169,0.102,south-southwest,2.3,No
2018/02/14,09:30,0.340,0.206,0.340,0.323,0.305,0.169,0.101,southwest,2.4,No
2018/02/14,09:40,0.338,0.207,0.340,0.322,0.304,0.170,0.101,southwest,3.6,No
2018/02/14,09:50,0.340,0.206,0.340,0.322,0.304,0.169,0.101,southwest,3.2,No
2018/02/14,10:00,0.337,0.206,0.341,0.322,0.306,0.170,0.101,southwest,3.8,No
2018/02/14,10:10,0.338,0.208,0.339,0.320,0.303,0.170,0.101,south-southwest,5.7,No
2018/02/14,10:20,0.339,0.206,0.340,0.324,0.307,0.170,0.102,southwest,3.0,No
2018/02/14,10:30,0.338,0.206,0.340,0.321,0.305,0.169,0.101,south-southwest,3.8,No
2018/02/14,10:40,0.337,0.207,0.339,0.322,0.305,0.169,0.101,southwest,5.4,No
2018/02/14,10:50,0.338,0.206,0.339,0.322,0.304,0.169,0.103,southwest,5.8,No
2018/02/14,11:00,0.341,0.207,0.341,0.322,0.305,0.170,0.101,south-southwest,4.9,No
2018/02/14,11:10,0.337,0.206,0.341,0.323,0.305,0.170,0.101,south,6.6,No
2018/02/14,11:20,0.339,0.206,0.339,0.322,0.306,0.170,0.101,south,6.8,No
2018/02/14,11:30,0.337,0.207,0.340,0.323,0.307,0.170,0.101,south,7.6,No
2018/02/14,11:40,0.341,0.206,0.339,0.322,0.305,0.170,0.101,south,6.3,No
2018/02/14,11:50,0.338,0.207,0.340,0.322,0.307,0.170,0.102,south,5.6,No
2018/02/14,12:00,0.341,0.207,0.339,0.322,0.304,0.169,0.102,south,1.1,No
2018/02/14,12:10,0.338,0.207,0.338,0.323,0.306,0.170,0.101,south,5.3,No
2018/02/14,12:20,0.340,0.207,0.340,0.324,0.305,0.170,0.100,south,7.9,No
2018/02/14,12:30,0.338,0.206,0.337,0.324,0.306,0.170,0.102,south,10.4,No
2018/02/14,12:40,0.340,0.207,0.340,0.321,0.306,0.170,0.101,south,9.2,No
2018/02/14,12:50,0.338,0.208,0.338,0.323,0.304,0.170,0.102,south,8.7,No
2018/02/14,13:00,0.339,0.205,0.341,0.322,0.306,0.168,0.102,south,8.5,No
2018/02/14,13:10,0.340,0.207,0.339,0.325,0.305,0.170,0.101,south,8.7,No
2018/02/14,13:20,0.340,0.206,0.340,0.322,0.305,0.171,0.102,south,9.8,No
2018/02/14,13:30,0.340,0.206,0.338,0.325,0.305,0.170,0.102,south,9.6,No
2018/02/14,13:40,0.340,0.208,0.340,0.323,0.307,0.170,0.101,south,8.6,No
2018/02/14,13:50,0.342,0.207,0.340,0.324,0.306,0.170,0.101,south,10.4,No
2018/02/14,14:00,0.341,0.206,0.340,0.323,0.305,0.171,0.102,south,11.2,No
2018/02/14,14:10,0.341,0.208,0.339,0.323,0.307,0.170,0.102,south,10.6,No
2018/02/14,14:20,0.340,0.207,0.339,0.324,0.307,0.170,0.101,south,12.0,No
2018/02/14,14:30,0.339,0.208,0.341,0.324,0.307,0.171,0.101,south,10.1,No
2018/02/14,14:40,0.341,0.208,0.341,0.323,0.307,0.169,0.101,south,11.5,No
2018/02/14,14:50,0.340,0.207,0.341,0.325,0.309,0.170,0.102,south,12.0,No
2018/02/14,15:00,0.342,0.207,0.342,0.325,0.308,0.169,0.102,south,10.3,No
2018/02/14,15:10,0.340,0.206,0.341,0.325,0.304,0.170,0.101,south,9.5,No
2018/02/14,15:20,0.341,0.208,0.341,0.325,0.308,0.170,0.101,south,11.8,No
2018/02/14,15:30,0.340,0.208,0.343,0.324,0.306,0.172,0.102,south,10.9,No
2018/02/14,15:40,0.341,0.208,0.341,0.323,0.307,0.170,0.102,south,12.8,No
2018/02/14,15:50,0.340,0.208,0.340,0.324,0.307,0.170,0.101,south,12.3,No
2018/02/14,16:00,0.341,0.208,0.342,0.324,0.307,0.171,0.102,south,12.2,No
2018/02/14,16:10,0.343,0.208,0.341,0.324,0.307,0.170,0.102,south,11.4,No
2018/02/14,16:20,0.340,0.207,0.341,0.323,0.309,0.170,0.102,south,9.8,No
2018/02/14,16:30,0.341,0.208,0.341,0.324,0.308,0.171,0.103,south,6.6,No
2018/02/14,16:40,0.341,0.208,0.342,0.324,0.305,0.171,0.103,south-southwest,4.2,No
2018/02/14,16:50,0.340,0.208,0.340,0.324,0.308,0.171,0.103,south-southwest,3.2,No
2018/02/14,17:00,0.340,0.208,0.339,0.323,0.307,0.171,0.101,south-southwest,6.7,No
2018/02/14,17:10,0.339,0.209,0.341,0.326,0.307,0.171,0.102,south-southwest,2.8,No
2018/02/14,17:20,0.340,0.208,0.340,0.323,0.308,0.170,0.102,south,5.8,No
2018/02/14,17:30,0.340,0.207,0.340,0.323,0.307,0.170,0.101,south,1.8,No
2018/02/14,17:40,0.340,0.207,0.342,0.324,0.306,0.170,0.102,south-southwest,2.0,No
2018/02/14,17:50,0.340,0.208,0.341,0.324,0.305,0.171,0.103,south-southeast,0.7,No
2018/02/14,18:00,0.342,0.208,0.340,0.323,0.306,0.171,0.101,south,1.7,No
2018/02/14,18:10,0.341,0.207,0.341,0.324,0.307,0.171,0.101,south-southwest,3.5,No
2018/02/14,18:20,0.342,0.208,0.341,0.323,0.306,0.171,0.103,southwest,5.8,No
2018/02/14,18:30,0.343,0.207,0.340,0.324,0.306,0.171,0.102,southwest,6.1,No
2018/02/14,18:40,0.342,0.207,0.340,0.323,0.306,0.170,0.102,southwest,8.1,No
2018/02/14,18:50,0.341,0.208,0.341,0.323,0.305,0.171,0.103,west-southwest,9.2,No
2018/02/14,19:00,0.342,0.208,0.341,0.325,0.306,0.171,0.102,west-southwest,9.6,No
2018/02/14,19:10,0.341,0.208,0.342,0.324,0.306,0.171,0.102,southwest,9.5,No
2018/02/14,19:20,0.341,0.208,0.341,0.325,0.307,0.171,0.103,southwest,8.7,No
2018/02/14,19:30,0.340,0.208,0.341,0.324,0.307,0.171,0.101,southwest,10.3,No
2018/02/14,19:40,0.341,0.208,0.342,0.323,0.305,0.171,0.102,southwest,10.3,No
2018/02/14,19:50,0.341,0.208,0.340,0.325,0.305,0.171,0.102,southwest,10.9,No
2018/02/14,20:00,0.342,0.209,0.341,0.324,0.306,0.171,0.102,southwest,7.6,No
2018/02/14,20:10,0.340,0.208,0.342,0.324,0.307,0.170,0.101,southwest,10.3,No
2018/02/14,20:20,0.341,0.209,0.342,0.324,0.307,0.170,0.102,southwest,8.2,No
2018/02/14,20:30,0.341,0.208,0.341,0.324,0.307,0.171,0.103,west-southwest,8.6,No
2018/02/14,20:40,0.342,0.208,0.341,0.325,0.306,0.171,0.103,west-southwest,9.8,No
2018/02/14,20:50,0.341,0.208,0.341,0.324,0.306,0.170,0.102,west-southwest,9.5,No
2018/02/14,21:00,0.342,0.208,0.343,0.323,0.305,0.169,0.102,west-southwest,9.0,No
2018/02/14,21:10,0.342,0.209,0.341,0.324,0.307,0.171,0.103,west-southwest,9.6,No
2018/02/14,21:20,0.341,0.208,0.339,0.325,0.307,0.171,0.102,west-southwest,10.0,No
2018/02/14,21:30,0.342,0.208,0.340,0.324,0.306,0.171,0.102,west-southwest,9.5,No
2018/02/14,21:40,0.341,0.207,0.341,0.324,0.306,0.171,0.102,west-southwest,9.3,No
2018/02/14,21:50,0.341,0.208,0.340,0.324,0.306,0.170,0.102,southwest,8.4,No
2018/02/14,22:00,0.341,0.208,0.341,0.325,0.307,0.171,0.102,west-southwest,9.8,No
2018/02/14,22:10,0.341,0.208,0.341,0.324,0.306,0.170,0.102,southwest,9.8,No
2018/02/14,22:20,0.342,0.208,0.341,0.323,0.307,0.171,0.102,southwest,10.6,No
2018/02/14,22:30,0.342,0.208,0.341,0.324,0.305,0.171,0.102,southwest,9.8,No
2018/02/14,22:40,0.341,0.208,0.341,0.324,0.307,0.170,0.103,southwest,9.8,No
2018/02/14,22:50,0.342,0.208,0.341,0.324,0.306,0.171,0.102,southwest,10.0,No
2018/02/14,23:00,0.340,0.209,0.342,0.323,0.307,0.171,0.102,west-southwest,9.2,No
2018/02/14,23:10,0.342,0.208,0.342,0.324,0.306,0.171,0.102,southwest,9.5,No
2018/02/14,23:20,0.341,0.208,0.340,0.324,0.306,0.170,0.102,southwest,8.2,No
2018/02/14,23:30,0.342,0.208,0.342,0.323,0.307,0.170,0.102,southwest,7.7,No
2018/02/14,23:40,0.342,0.209,0.340,0.325,0.308,0.170,0.103,south-southwest,6.8,No
2018/02/14,23:50,0.343,0.208,0.341,0.323,0.307,0.171,0.102,south-southwest,7.1,No
